Location: Unspecified
(0.0000°N, 0.0000°E)
Time: 17:03:08
(UTC+00:00)

N. Korean satellite - Pass Details

Date: 18 March 2019
Orbit: 457 x 508 km, 97.2° (Epoch: 22 May)

Event Time Altitude Azimuth Distance (km) Brightness Sun altitude
Rises 04:59:30 0° 43° (NE) 2,539 10.8 -17.2°
Reaches altitude 10° 05:02:20 10° 69° (ENE) 1,675 10.4 -16.5°
Maximum altitude 05:04:18 14° 102° (ESE) 1,446 10.1 -16.0°
Drops below altitude 10° 05:06:17 10° 135° (SE) 1,695 10.0 -15.5°
Sets 05:09:10 0° 160° (SSE) 2,591 10.5 -14.8°
